Starlink 3681

operational
NORAD ID: 51968 Int'l Des: 2022-025 Owner: SPXS Country: US Constellation: starlink
LEOCIRCULARSTARLINK_TYPE

About Starlink 3681

Description loading...

Live Position

Loading 3D Globe...

Upcoming Passes

Altitude History

Altitude vs Time

uPlot chart will show altitude changes over time

Two-Line Element Set

1 51968U 22025N 26034.42574735 .00000486 00000-0 51488-4 0 9990
2 51968 53.0568 180.7465 0001376 86.7010 273.4137 15.06397564215818
Epoch: Feb 3, 2026 • Age: 18 hours

Current Status

Altitude 554.7 km
Velocity 7.58 km/s
Sub-Earth Point -24.12°S, 172.54°E
Launch Date Mar 9, 2022
Age 3.9 years
Type internet

Technical Details

Classification Payload
Mass 297.00 kg
Dry Mass 275.00 kg
Total Mass 297.00 kg
Length 0.20 m
Diameter 2.80 m
Span 9.00 m
Shape Box + pan
Manufacturer SPXS
Bus Type Starlink
Phase Status In Orbit
Owner/State SPXS/US

Large Constellations

Loading constellations...